Location: Casilda
(33.0440°S, 61.1680°W)
Time: 02:12:33
(UTC-03:00)

ISS - Pass Details

Date: 17 May 2018
Orbit: 402 x 407 km, 51.6° (Epoch: 21 May)

Event Time Altitude Azimuth Distance (km) Brightness Sun altitude
Rises 18:39:00 0° 228° (SW) 2,359 0.5 -6.1°
Reaches altitude 10° 18:41:07 10° 229° (SW) 1,491 -0.5 -6.5°
Maximum altitude 18:44:27 75° 314° (NW) 430 -3.6 -7.1°
Drops below altitude 10° 18:47:45 10° 40° (NE) 1,470 -1.2 -7.8°
Sets 18:49:49 0° 41° (NE) 2,323 -0.2 -8.2°
